TimePDT,TemperatureF,Dew PointF,Humidity,Sea Level PressureIn,VisibilityMPH,Wind Direction,Wind SpeedMPH,Gust SpeedMPH,PrecipitationIn,Events,Conditions,WindDirDegrees,DateUTC
12:52 AM,51.1,48.0,89,29.84,-9999.0,NE,4.6,-,N/A,,Unknown,50,2012-10-20 07:52:00
1:52 AM,48.9,46.0,90,29.84,-9999.0,NE,3.5,-,N/A,,Unknown,40,2012-10-20 08:52:00
2:52 AM,48.9,45.0,86,29.83,-9999.0,Calm,Calm,-,N/A,,Unknown,0,2012-10-20 09:52:00
3:52 AM,51.1,48.0,89,29.81,-9999.0,NE,3.5,-,N/A,,Unknown,40,2012-10-20 10:52:00
4:52 AM,50.0,46.9,89,29.83,-9999.0,ENE,3.5,-,N/A,,Unknown,60,2012-10-20 11:52:00
5:52 AM,48.9,46.0,90,29.84,-9999.0,NE,4.6,-,N/A,,Unknown,50,2012-10-20 12:52:00
6:52 AM,48.0,45.0,89,29.86,-9999.0,Calm,Calm,-,N/A,,Unknown,0,2012-10-20 13:52:00
7:52 AM,52.0,48.0,86,29.86,-9999.0,NE,4.6,-,N/A,,Unknown,50,2012-10-20 14:52:00
8:52 AM,60.1,52.0,75,29.88,-9999.0,Calm,Calm,-,N/A,,Unknown,0,2012-10-20 15:52:00
9:52 AM,66.0,55.9,70,29.86,-9999.0,SSW,8.1,-,N/A,,Unknown,210,2012-10-20 16:52:00
10:52 AM,66.0,55.9,70,29.85,-9999.0,SW,12.7,-,N/A,,Unknown,220,2012-10-20 17:52:00
11:52 AM,71.1,53.1,53,29.83,-9999.0,SW,11.5,-,N/A,,Unknown,220,2012-10-20 18:52:00
12:52 PM,72.0,52.0,49,29.81,-9999.0,SW,11.5,-,N/A,,Unknown,230,2012-10-20 19:52:00
1:52 PM,73.0,54.0,51,29.78,-9999.0,SSW,11.5,-,N/A,,Unknown,210,2012-10-20 20:52:00
2:52 PM,73.0,55.0,53,29.77,-9999.0,SW,10.4,18.4,N/A,,Unknown,220,2012-10-20 21:52:00
3:52 PM,70.0,55.9,61,29.77,-9999.0,SW,13.8,-,N/A,,Unknown,220,2012-10-20 22:52:00
4:52 PM,66.0,57.0,73,29.78,-9999.0,SSW,12.7,-,N/A,,Unknown,210,2012-10-20 23:52:00
5:52 PM,61.0,55.9,83,29.79,-9999.0,SW,10.4,-,N/A,,Unknown,230,2012-10-21 00:52:00
6:52 PM,60.1,55.9,86,29.81,-9999.0,WSW,6.9,-,N/A,,Unknown,240,2012-10-21 01:52:00
7:52 PM,57.9,55.9,93,29.82,-9999.0,SW,8.1,-,N/A,,Unknown,230,2012-10-21 02:52:00
8:52 PM,59.0,54.0,83,29.82,-9999.0,WSW,4.6,-,N/A,,Unknown,250,2012-10-21 03:52:00
9:52 PM,57.9,54.0,87,29.82,-9999.0,SW,5.8,-,N/A,,Unknown,220,2012-10-21 04:52:00
10:52 PM,57.9,54.0,87,29.83,-9999.0,West,3.5,-,N/A,,Unknown,280,2012-10-21 05:52:00
11:52 PM,57.9,54.0,87,29.81,-9999.0,SSW,3.5,-,N/A,,Unknown,200,2012-10-21 06:52:00